Lid_Strength_Index
3 3 3 3 3 3 2 2 2 2 2 2 2 2 2 2 2 2 3 1 0 -2 -1 0 1 1 1 2 2 2 7 8 8 7 7 5 5 4 3 4 3 3 3 2 1
3 3 3 3 4 3 3 2 2 2 2 3 2 2 2 2 3 3 -0 -3 -2 -3 2 2 3 3 4 3 3 5 6 7 5 5 6 5 5 5 5 5 5 4 3 2 2
4 3 3 4 4 4 4 3 2 2 3 3 3 3 2 2 3 2 -2 -2 -3 -2 2 2 2 3 6 4 4 5 6 5 5 4 4 5 5 4 5 6 5 5 4 3 2
3 3 4 4 4 4 4 4 3 2 3 3 2 2 2 3 6 2 -3 -3 -3 0 2 2 3 5 6 6 5 7 4 4 4 4 4 5 4 5 5 5 3 3 3 3 3
4 4 4 4 4 4 4 4 4 3 3 3 2 2 3 3 3 1 -3 -1 1 1 2 3 5 5 6 4 5 6 5 4 4 4 4 4 5 5 5 3 3 3 3 3 3
4 4 4 4 4 5 5 5 5 4 3 2 2 3 3 5 -0 1 1 1 1 1 2 2 3 2 4 4 5 5 5 5 4 4 4 5 6 5 4 3 3 3 3 3 3
3 4 4 4 4 4 5 5 5 4 2 1 1 2 3 3 -0 -1 -0 1 1 2 3 2 2 3 3 5 3 5 8 7 6 4 5 5 8 8 4 3 4 4 3 3 3
3 3 3 3 4 4 5 5 5 4 2 1 1 3 3 -0 -0 0 0 1 1 1 1 1 1 3 3 3 4 6 7 12 6 5 5 6 13 8 4 4 5 4 4 3 3
3 3 3 3 4 4 5 5 4 3 2 1 2 3 4 1 2 1 1 2 2 1 1 1 2 3 4 6 7 7 10 9 7 5 5 7 9 7 4 4 5 4 4 4 3
3 3 4 4 4 4 6 5 2 3 3 1 2 4 2 3 1 1 1 1 2 2 3 3 3 5 5 7 10 9 9 9 10 6 5 6 8 6 5 5 5 4 4 4 4
3 3 4 4 4 4 5 3 3 4 3 5 4 3 3 1 1 1 1 2 3 3 6 4 6 7 6 5 6 6 8 9 8 6 6 7 9 8 5 5 5 5 4 4 4
3 3 4 4 4 4 3 4 4 3 6 4 3 3 2 2 3 2 1 4 4 6 5 6 7 5 5 5 6 7 8 8 6 5 6 8 9 8 6 7 5 5 4 4 3
4 4 4 4 4 3 2 3 2 2 5 5 4 4 3 3 4 3 2 3 5 6 6 7 6 5 5 6 7 7 8 7 8 7 8 8 10 9 8 7 6 4 4 3 3
4 4 4 5 4 2 3 2 2 1 7 6 6 5 3 2 4 2 2 3 5 6 6 6 5 6 6 6 6 8 6 6 7 10 15 9 14 10 10 10 8 5 4 4 3
4 4 4 4 3 3 2 2 2 2 12 5 6 3 3 4 4 3 1 3 6 6 6 7 6 6 7 6 6 7 5 7 7 9 13 10 12 11 9 10 9 5 5 4 3
4 4 5 4 2 1 1 2 2 8 12 7 6 7 5 4 5 4 4 2 3 5 5 6 4 5 5 5 5 5 6 7 8 10 16 11 10 12 10 8 6 5 5 4 3
4 4 5 3 4 1 1 2 8 11 5 7 7 7 7 6 5 5 5 6 7 8 8 6 6 5 4 6 5 6 8 13 12 12 13 8 11 11 8 7 6 6 5 4 3
5 6 4 1 1 1 2 5 11 7 7 6 6 7 8 6 7 6 7 7 5 6 8 9 10 6 5 6 7 7 8 12 15 15 14 9 12 10 6 7 7 4 4 4 4
6 2 1 -0 -0 1 3 9 9 7 5 6 6 8 8 7 6 6 6 6 6 5 8 8 9 5 5 5 5 7 8 7 10 10 12 11 10 8 6 6 5 5 5 4 4
4 2 2 -1 -1 1 5 9 6 5 5 5 7 6 8 7 7 7 7 5 6 5 4 6 9 6 5 5 5 6 6 11 11 17 16 12 12 12 9 7 6 6 5 4 3
3 3 1 -1 -0 3 7 6 5 4 4 5 7 7 6 7 6 7 7 5 5 5 4 5 7 8 6 8 8 7 10 10 11 11 14 14 14 7 8 7 6 5 5 4 4
3 5 0 -1 4 4 6 5 8 4 4 4 5 5 6 6 7 7 7 6 4 4 6 5 6 9 8 6 6 6 7 9 11 12 10 11 15 6 8 7 5 5 4 4 3
4 3 -0 1 6 6 4 5 4 5 5 5 5 5 5 6 7 6 6 4 4 5 6 6 7 11 13 9 8 9 7 6 6 8 11 12 12 6 6 6 5 5 4 4 3
4 6 3 2 3 5 6 5 6 4 4 4 5 4 5 6 5 6 6 5 4 5 3 4 7 9 12 10 8 9 7 6 7 10 10 10 9 8 6 6 5 5 4 4 3
4 4 4 6 5 4 4 5 6 6 4 4 5 5 6 7 6 6 5 5 5 5 4 5 8 7 7 7 7 7 7 7 8 7 9 8 9 7 6 6 5 4 4 4 4
4 5 4 5 4 5 6 6 6 5 5 5 6 5 5 7 9 8 8 5 7 5 5 4 9 7 9 7 7 8 7 7 7 7 7 8 8 5 5 4 5 4 4 4 4
2 2 3 5 5 5 6 5 5 4 4 4 4 5 5 5 4 5 5 4 8 9 6 6 8 9 11 11 11 11 10 10 7 6 7 9 7 5 6 5 5 5 4 4 4